OK1ZDJ-13 Weather Reports


time (UTC)temp
C
wind
direction
speed
KPH
gust
KPH
rain 1hr
cm
rain 24hr
cm
rain mn
cm
humidity
%
barometer
mb
20260507203821 11 0.0 0.0 0.00 0.00 0.00 82 1017.1
20260507202821 12 0.0 0.0 0.00 0.00 0.00 81 1016.9
20260507201822 12 0.0 0.0 0.00 0.00 0.00 80 1016.8
20260507200821 12 0.0 0.0 0.00 0.00 0.00 78 1016.8
20260507195821 12 0.0 0.0 0.00 0.00 0.00 78 1016.7
20260507194821 12 0.0 0.0 0.00 0.00 0.00 77 1016.6
20260507193821 12 0.0 0.0 0.00 0.00 0.00 76 1016.4
20260507192821 12 0.0 0.0 0.00 0.00 0.00 75 1016.3
20260507191821 12 0.0 0.0 0.00 0.00 0.00 73 1016.2
20260507184821 13 0.0 0.0 0.00 0.00 0.00 70 1015.6
20260507183821 13 0.0 0.0 0.00 0.00 0.00 69 1015.5
20260507182821 13 0.0 0.0 0.00 0.00 0.00 68 1015.3
20260507181821 14 0.0 0.0 0.00 0.00 0.00 67 1015.2
20260507180821 14 0.0 0.0 0.00 0.00 0.00 66 1015.1
20260507175821 14 0.0 0.0 0.00 0.00 0.00 65 1015.1
20260507174821 15 0.0 0.0 0.00 0.00 0.00 64 1014.9
20260507172822 15 0.0 0.0 0.00 0.00 0.00 63 1014.8
20260507171821 15 0.0 0.0 0.00 0.00 0.00 62 1014.7
20260507170821 15 0.0 0.0 0.00 0.00 0.00 59 1014.6
20260507165821 16 0.0 0.0 0.00 0.00 0.00 56 1014.5
20260507164821 17 0.0 0.0 0.00 0.00 0.00 51 1014.2
20260507163821 17 0.0 0.0 0.00 0.00 0.00 48 1014.1
20260507162821 18 0.0 0.0 0.00 0.00 0.00 46 1013.9
20260507161821 18 0.0 0.0 0.00 0.00 0.00 47 1014.0
20260507160821 19 0.0 0.0 0.00 0.00 0.00 44 1013.9
20260507155821 21 0.0 0.0 0.00 0.00 0.00 38 1013.8
20260507153826 21 0.0 0.0 0.00 0.00 0.00 40 1013.9
20260507152819 22 0.0 0.0 0.00 0.00 0.00 36 1013.9
20260507151819 22 0.0 0.0 0.00 0.00 0.00 36 1013.9
20260507150819 21 0.0 0.0 0.00 0.00 0.00 37 1013.8
20260507145819 22 0.0 0.0 0.00 0.00 0.00 34 1013.7
20260507144819 21 0.0 0.0 0.00 0.00 0.00 38 1013.8
20260507143819 20 0.0 0.0 0.00 0.00 0.00 42 1013.9
20260507142819 20 0.0 0.0 0.00 0.00 0.00 44 1013.9
20260507141819 19 0.0 0.0 0.00 0.00 0.00 46 1013.8
20260507140819 18 0.0 0.0 0.00 0.00 0.00 48 1014.0
20260507135820 18 0.0 0.0 0.00 0.00 0.00 48 1014.0
20260507134819 18 0.0 0.0 0.00 0.00 0.00 48 1014.2
20260507133820 18 0.0 0.0 0.00 0.00 0.00 48 1014.1
20260507132819 18 0.0 0.0 0.00 0.00 0.00 50 1014.1
20260507131819 18 0.0 0.0 0.00 0.00 0.00 50 1014.1
20260507130819 18 0.0 0.0 0.00 0.00 0.00 51 1014.2
20260507125819 18 0.0 0.0 0.00 0.00 0.00 50 1014.0
20260507124819 18 0.0 0.0 0.00 0.00 0.00 50 1014.0
20260507123819 18 0.0 0.0 0.00 0.00 0.00 49 1013.9
20260507122819 18 0.0 0.0 0.00 0.00 0.00 47 1013.8
20260507121819 19 0.0 0.0 0.00 0.00 0.00 47 1013.7
20260507120819 18 0.0 0.0 0.00 0.00 0.00 49 1013.7
20260507115819 18 0.0 0.0 0.00 0.00 0.00 52 1013.7
20260507114819 18 0.0 0.0 0.00 0.00 0.00 51 1013.6
20260507112819 18 0.0 0.0 0.00 0.00 0.00 56 1013.6
20260507111819 17 0.0 0.0 0.00 0.00 0.00 57 1013.6
20260507105819 17 0.0 0.0 0.00 0.00 0.00 58 1013.6
20260507104819 17 0.0 0.0 0.00 0.00 0.00 59 1013.5
20260507103819 17 0.0 0.0 0.00 0.00 0.00 60 1013.5
20260507102819 17 0.0 0.0 0.00 0.00 0.00 58 1013.4
20260507100819 17 0.0 0.0 0.00 0.00 0.00 56 1013.1
20260507095819 16 0.0 0.0 0.00 0.00 0.00 60 1013.2
20260507094819 16 0.0 0.0 0.00 0.00 0.00 61 1013.2
20260507093824 16 0.0 0.0 0.00 0.00 0.00 62 1013.1
20260507092818 16 0.0 0.0 0.00 0.00 0.00 61 1013.0
20260507091818 16 0.0 0.0 0.00 0.00 0.00 63 1013.0
20260507090818 16 0.0 0.0 0.00 0.00 0.00 62 1013.0
20260507085818 16 0.0 0.0 0.00 0.00 0.00 63 1012.9
20260507084818 16 0.0 0.0 0.00 0.00 0.00 62 1012.8
20260507083818 15 0.0 0.0 0.00 0.00 0.00 67 1012.7
20260507082818 15 0.0 0.0 0.00 0.00 0.00 68 1012.7
20260507081818 15 0.0 0.0 0.00 0.00 0.00 70 1012.6
20260507080818 15 0.0 0.0 0.00 0.00 0.00 71 1012.6
20260507075818 15 0.0 0.0 0.00 0.00 0.00 70 1012.5
20260507074818 15 0.0 0.0 0.00 0.00 0.00 74 1012.5
20260507073818 15 0.0 0.0 0.00 0.00 0.00 74 1012.5
20260507072818 15 0.0 0.0 0.00 0.00 0.00 75 1012.5
20260507071818 15 0.0 0.0 0.00 0.00 0.00 77 1012.4
20260507070818 15 0.0 0.0 0.00 0.00 0.00 76 1012.3
20260507064818 15 0.0 0.0 0.00 0.00 0.00 76 1012.2
20260507063818 15 0.0 0.0 0.00 0.00 0.00 75 1012.2
20260507062818 16 0.0 0.0 0.00 0.00 0.00 70 1012.0
20260507061818 16 0.0 0.0 0.00 0.00 0.00 74 1011.8
20260507060818 15 0.0 0.0 0.00 0.00 0.00 81 1011.8
20260507055818 14 0.0 0.0 0.00 0.00 0.00 84 1011.7
20260507054818 13 0.0 0.0 0.00 0.00 0.00 86 1011.6
20260507053818 13 0.0 0.0 0.00 0.00 0.00 87 1011.4
20260507052818 13 0.0 0.0 0.00 0.00 0.00 90 1011.3
20260507051818 12 0.0 0.0 0.00 0.00 0.00 95 1011.3
20260507050818 12 0.0 0.0 0.00 0.00 0.00 95 1011.1
20260507045818 12 0.0 0.0 0.00 0.00 0.00 95 1011.1
20260507044818 12 0.0 0.0 0.00 0.00 0.00 95 1010.9
20260507043818 12 0.0 0.0 0.00 0.00 0.00 96 1010.8
20260507042818 12 0.0 0.0 0.00 0.00 0.00 97 1010.7
20260507041818 12 0.0 0.0 0.00 0.00 0.00 98 1010.6
20260507040818 12 0.0 0.0 0.00 0.00 0.00 99 1010.3
20260507035818 12 0.0 0.0 0.00 0.00 0.00 99 1010.3
20260507034818 12 0.0 0.0 0.00 0.00 0.00 99 1010.1
20260507033822 12 0.0 0.0 0.00 0.00 0.00 10 1010.0
20260507032817 12 0.0 0.0 0.00 0.00 0.00 10 1009.9
20260507031816 12 0.0 0.0 0.00 0.00 0.00 10 1009.9
20260507030817 12 0.0 0.0 0.00 0.00 0.00 10 1009.9
20260507025816 12 0.0 0.0 0.00 0.00 0.00 10 1009.9
20260507024816 12 0.0 0.0 0.00 0.00 0.00 10 1009.8
20260507023816 12 0.0 0.0 0.00 0.00 0.00 99 1009.8
20260507022816 12 0.0 0.0 0.00 0.00 0.00 98 1009.9
20260507021816 12 0.0 0.0 0.00 0.00 0.00 98 1009.8
20260507020816 11 0.0 0.0 0.00 0.00 0.00 97 1009.8
20260507015816 11 0.0 0.0 0.00 0.00 0.00 96 1009.8
20260507014816 11 0.0 0.0 0.00 0.00 0.00 95 1009.8
20260507013816 12 0.0 0.0 0.00 0.00 0.00 95 1009.7
20260507012816 12 0.0 0.0 0.00 0.00 0.00 96 1009.5
20260507011816 12 0.0 0.0 0.00 0.00 0.00 97 1009.6
20260507010816 12 0.0 0.0 0.00 0.00 0.00 97 1009.6
20260507005816 12 0.0 0.0 0.00 0.00 0.00 97 1009.5
20260507004816 12 0.0 0.0 0.00 0.00 0.00 97 1009.4
20260507003816 12 0.0 0.0 0.00 0.00 0.00 97 1009.2
20260507002816 12 0.0 0.0 0.00 0.00 0.00 97 1008.9
20260507001816 12 0.0 0.0 0.00 0.00 0.00 97 1008.7
20260507000816 12 0.0 0.0 0.00 0.00 0.00 96 1008.6
20260506234816 12 0.0 0.0 0.00 0.00 0.00 96 1008.3
20260506233816 12 0.0 0.0 0.00 0.00 0.00 95 1008.1
20260506232816 13 0.0 0.0 0.00 0.00 0.00 95 1008.1
20260506231816 13 0.0 0.0 0.00 0.00 0.00 95 1007.9
20260506230818 13 0.0 0.0 0.00 0.00 0.00 96 1007.9
20260506225816 13 0.0 0.0 0.00 0.00 0.00 96 1007.0
20260506224816 13 0.0 0.0 0.00 0.00 0.00 94 1007.8
20260506223816 13 0.0 0.0 0.00 0.00 0.00 94 1008.7
20260506222816 13 0.0 0.0 0.00 0.00 0.00 94 1008.8
20260506221816 13 0.0 0.0 0.00 0.00 0.00 93 1009.0
20260506220816 13 0.0 0.0 0.00 0.00 0.00 92 1008.9
20260506215816 13 0.0 0.0 0.00 0.00 0.00 92 1009.3
20260506214816 13 0.0 0.0 0.00 0.00 0.00 91 1008.3
20260506213821 13 0.0 0.0 0.00 0.00 0.00 92 1008.6
20260506212815 13 0.0 0.0 0.00 0.00 0.00 90 1008.0
20260506211815 13 0.0 0.0 0.00 0.00 0.00 94 1007.7
20260506204815 13 0.0 0.0 0.00 0.00 0.00 93 1007.3